����������;��������(kWh)
2019-02-04 00:00;85,75
2019-02-04 00:15;83,45
2019-02-04 00:30;89,55
2019-02-04 00:45;92,45
2019-02-04 01:00;82,45
2019-02-04 01:15;90
2019-02-04 01:30;89,7
2019-02-04 01:45;85,75
2019-02-04 02:00;85,3
2019-02-04 02:15;97,75
2019-02-04 02:30;84,35
2019-02-04 02:45;86,6
2019-02-04 03:00;95,8
2019-02-04 03:15;92,5
2019-02-04 03:30;93,55
2019-02-04 03:45;106,1
2019-02-04 04:00;93,35
2019-02-04 04:15;93,4
2019-02-04 04:30;105,2
2019-02-04 04:45;96,35
2019-02-04 05:00;94,85
2019-02-04 05:15;102,5
2019-02-04 05:30;89,95
2019-02-04 05:45;110,4
2019-02-04 06:00;125,15
2019-02-04 06:15;122,15
2019-02-04 06:30;117,55
2019-02-04 06:45;119,15
2019-02-04 07:00;104,45
2019-02-04 07:15;117,45
2019-02-04 07:30;104,1
2019-02-04 07:45;125,8
2019-02-04 08:00;124,8
2019-02-04 08:15;151,8
2019-02-04 08:30;155,65
2019-02-04 08:45;159,2
2019-02-04 09:00;179,7
2019-02-04 09:15;185,5
2019-02-04 09:30;218,6
2019-02-04 09:45;198
2019-02-04 10:00;206,5
2019-02-04 10:15;205,75
2019-02-04 10:30;222,05
2019-02-04 10:45;215
2019-02-04 11:00;233,8
2019-02-04 11:15;238,9
2019-02-04 11:30;227,15
2019-02-04 11:45;237,95
2019-02-04 12:00;234,6
2019-02-04 12:15;221,75
2019-02-04 12:30;239,65
2019-02-04 12:45;215,45
2019-02-04 13:00;224,95
2019-02-04 13:15;214,45
2019-02-04 13:30;234,85
2019-02-04 13:45;216,85
2019-02-04 14:00;223,9
2019-02-04 14:15;215,85
2019-02-04 14:30;220,45
2019-02-04 14:45;224,55
2019-02-04 15:00;207,35
2019-02-04 15:15;211,2
2019-02-04 15:30;188,85
2019-02-04 15:45;198,05
2019-02-04 16:00;170,45
2019-02-04 16:15;183,8
2019-02-04 16:30;163,2
2019-02-04 16:45;180,15
2019-02-04 17:00;167,95
2019-02-04 17:15;175,85
2019-02-04 17:30;158,95
2019-02-04 17:45;162,95
2019-02-04 18:00;159,4
2019-02-04 18:15;164,75
2019-02-04 18:30;167
2019-02-04 18:45;161,15
2019-02-04 19:00;161,6
2019-02-04 19:15;152,45
2019-02-04 19:30;144,8
2019-02-04 19:45;135,1
2019-02-04 20:00;132,8
2019-02-04 20:15;126,9
2019-02-04 20:30;119,75
2019-02-04 20:45;119
2019-02-04 21:00;113,65
2019-02-04 21:15;110,5
2019-02-04 21:30;110
2019-02-04 21:45;103,45
2019-02-04 22:00;102,95
2019-02-04 22:15;98,35
2019-02-04 22:30;92,7
2019-02-04 22:45;95
2019-02-04 23:00;98,15
2019-02-04 23:15;91,4
2019-02-04 23:30;96,25
2019-02-04 23:45;95,85
2019-02-05 00:00;86,45
2019-02-05 00:15;85,1
2019-02-05 00:30;85,15
2019-02-05 00:45;85,2
2019-02-05 01:00;83,6
2019-02-05 01:15;86,2
2019-02-05 01:30;86,2
2019-02-05 01:45;86,1
2019-02-05 02:00;87,2
2019-02-05 02:15;85,25
2019-02-05 02:30;84,55
2019-02-05 02:45;84,45
2019-02-05 03:00;85,75
2019-02-05 03:15;86,35
2019-02-05 03:30;85,05
2019-02-05 03:45;86,3
2019-02-05 04:00;90,1
2019-02-05 04:15;95,5
2019-02-05 04:30;95,55
2019-02-05 04:45;98,15
2019-02-05 05:00;99,05
2019-02-05 05:15;98,75
2019-02-05 05:30;94,5
2019-02-05 05:45;101,8
2019-02-05 06:00;116,4
2019-02-05 06:15;115,45
2019-02-05 06:30;117,75
2019-02-05 06:45;110,95
2019-02-05 07:00;106
2019-02-05 07:15;107,5
2019-02-05 07:30;158,65
2019-02-05 07:45;173,05
2019-02-05 08:00;129,85
2019-02-05 08:15;141,3
2019-02-05 08:30;145,35
2019-02-05 08:45;158,95
2019-02-05 09:00;166
2019-02-05 09:15;159,45
2019-02-05 09:30;182,15
2019-02-05 09:45;166,95
2019-02-05 10:00;183,4
2019-02-05 10:15;181,5
2019-02-05 10:30;196,25
2019-02-05 10:45;192,4
2019-02-05 11:00;190,6
2019-02-05 11:15;193,2
2019-02-05 11:30;187,35
2019-02-05 11:45;194,8
2019-02-05 12:00;188,45
2019-02-05 12:15;184,9
2019-02-05 12:30;193,25
2019-02-05 12:45;188,25
2019-02-05 13:00;193,25
2019-02-05 13:15;185,35
2019-02-05 13:30;191,4
2019-02-05 13:45;183
2019-02-05 14:00;189,55
2019-02-05 14:15;183,85
2019-02-05 14:30;186,7
2019-02-05 14:45;176,25
2019-02-05 15:00;189,75
2019-02-05 15:15;180,05
2019-02-05 15:30;174,7
2019-02-05 15:45;170,45
2019-02-05 16:00;181,9
2019-02-05 16:15;166,55
2019-02-05 16:30;172,8
2019-02-05 16:45;169,05
2019-02-05 17:00;171,65
2019-02-05 17:15;165,1
2019-02-05 17:30;157,8
2019-02-05 17:45;166,15
2019-02-05 18:00;157,95
2019-02-05 18:15;152,9
2019-02-05 18:30;149,9
2019-02-05 18:45;149,15
2019-02-05 19:00;148,65
2019-02-05 19:15;145,15
2019-02-05 19:30;146,4
2019-02-05 19:45;136,8
2019-02-05 20:00;129,85
2019-02-05 20:15;122,75
2019-02-05 20:30;125,8
2019-02-05 20:45;123,4
2019-02-05 21:00;117,2
2019-02-05 21:15;116,05
2019-02-05 21:30;114,8
2019-02-05 21:45;112,65
2019-02-05 22:00;107,05
2019-02-05 22:15;107,05
2019-02-05 22:30;107,05
2019-02-05 22:45;104,25
2019-02-05 23:00;109,9
2019-02-05 23:15;100,15
2019-02-05 23:30;97,85
2019-02-05 23:45;100,35
2019-02-06 00:00;88,7
2019-02-06 00:15;86,95
2019-02-06 00:30;86,1
2019-02-06 00:45;87,3
2019-02-06 01:00;88,95
2019-02-06 01:15;95,45
2019-02-06 01:30;96,75
2019-02-06 01:45;96,45
2019-02-06 02:00;97,85
2019-02-06 02:15;97,55
2019-02-06 02:30;98,3
2019-02-06 02:45;96,65
2019-02-06 03:00;94,95
2019-02-06 03:15;91,95
2019-02-06 03:30;91,45
2019-02-06 03:45;91,35
2019-02-06 04:00;91,85
2019-02-06 04:15;90,6
2019-02-06 04:30;89,95
2019-02-06 04:45;90,55
2019-02-06 05:00;92,25
2019-02-06 05:15;89,7
2019-02-06 05:30;90,2
2019-02-06 05:45;87,35
2019-02-06 06:00;89,25
2019-02-06 06:15;103,4
2019-02-06 06:30;114,6
2019-02-06 06:45;115,6
2019-02-06 07:00;119,95
2019-02-06 07:15;123,3
2019-02-06 07:30;164,7
2019-02-06 07:45;147,75
2019-02-06 08:00;135,65
2019-02-06 08:15;135,55
2019-02-06 08:30;146,6
2019-02-06 08:45;158,25
2019-02-06 09:00;170,8
2019-02-06 09:15;185,95
2019-02-06 09:30;198,45
2019-02-06 09:45;211,3
2019-02-06 10:00;214,6
2019-02-06 10:15;218,7
2019-02-06 10:30;220,6
2019-02-06 10:45;211,6
2019-02-06 11:00;228,8
2019-02-06 11:15;228,2
2019-02-06 11:30;228,45
2019-02-06 11:45;240,2
2019-02-06 12:00;243,75
2019-02-06 12:15;255
2019-02-06 12:30;249,65
2019-02-06 12:45;245,6
2019-02-06 13:00;244
2019-02-06 13:15;238,15
2019-02-06 13:30;222,35
2019-02-06 13:45;235
2019-02-06 14:00;228,1
2019-02-06 14:15;212,2
2019-02-06 14:30;208,4
2019-02-06 14:45;206,75
2019-02-06 15:00;190,8
2019-02-06 15:15;195,1
2019-02-06 15:30;193,45
2019-02-06 15:45;173,05
2019-02-06 16:00;179,15
2019-02-06 16:15;181,7
2019-02-06 16:30;166,15
2019-02-06 16:45;175,9
2019-02-06 17:00;185,65
2019-02-06 17:15;172,3
2019-02-06 17:30;167,8
2019-02-06 17:45;172,05
2019-02-06 18:00;161,6
2019-02-06 18:15;155,2
2019-02-06 18:30;154,05
2019-02-06 18:45;152,95
2019-02-06 19:00;149,4
2019-02-06 19:15;144,8
2019-02-06 19:30;146,1
2019-02-06 19:45;146,55
2019-02-06 20:00;138,75
2019-02-06 20:15;136,2
2019-02-06 20:30;133,4
2019-02-06 20:45;134,7
2019-02-06 21:00;129,35
2019-02-06 21:15;121,45
2019-02-06 21:30;116,4
2019-02-06 21:45;110,45
2019-02-06 22:00;109,75
2019-02-06 22:15;105,7
2019-02-06 22:30;100,5
2019-02-06 22:45;98,4
2019-02-06 23:00;104,1
2019-02-06 23:15;103,35
2019-02-06 23:30;103,7
2019-02-06 23:45;106,9
2019-02-07 00:00;95,45
2019-02-07 00:15;92,4
2019-02-07 00:30;94,35
2019-02-07 00:45;96,9
2019-02-07 01:00;95,05
2019-02-07 01:15;98,25
2019-02-07 01:30;104,55
2019-02-07 01:45;104,1
2019-02-07 02:00;105,2
2019-02-07 02:15;103,9
2019-02-07 02:30;103,6
2019-02-07 02:45;102,8
2019-02-07 03:00;105,5
2019-02-07 03:15;103,85
2019-02-07 03:30;101,6
2019-02-07 03:45;97,85
2019-02-07 04:00;97,35
2019-02-07 04:15;95,9
2019-02-07 04:30;95,75
2019-02-07 04:45;95,55
2019-02-07 05:00;98,15
2019-02-07 05:15;97
2019-02-07 05:30;96
2019-02-07 05:45;91,55
2019-02-07 06:00;95,7
2019-02-07 06:15;97,65
2019-02-07 06:30;95,6
2019-02-07 06:45;95,6
2019-02-07 07:00;95,8
2019-02-07 07:15;102,3
2019-02-07 07:30;158,1
2019-02-07 07:45;133,2
2019-02-07 08:00;130,75
2019-02-07 08:15;129
2019-02-07 08:30;144,05
2019-02-07 08:45;160,25
2019-02-07 09:00;177,55
2019-02-07 09:15;185,7
2019-02-07 09:30;190,2
2019-02-07 09:45;201,1
2019-02-07 10:00;205,55
2019-02-07 10:15;223,4
2019-02-07 10:30;231,7
2019-02-07 10:45;240,15
2019-02-07 11:00;260,5
2019-02-07 11:15;257
2019-02-07 11:30;260,9
2019-02-07 11:45;259,2
2019-02-07 12:00;271,8
2019-02-07 12:15;273,7
2019-02-07 12:30;275,65
2019-02-07 12:45;270
2019-02-07 13:00;267,45
2019-02-07 13:15;267,3
2019-02-07 13:30;262,1
2019-02-07 13:45;256,05
2019-02-07 14:00;261,35
2019-02-07 14:15;257,25
2019-02-07 14:30;242,6
2019-02-07 14:45;250
2019-02-07 15:00;248,95
2019-02-07 15:15;232,8
2019-02-07 15:30;223,7
2019-02-07 15:45;213,25
2019-02-07 16:00;210,6
2019-02-07 16:15;207,8
2019-02-07 16:30;188,35
2019-02-07 16:45;199,3
2019-02-07 17:00;197,6
2019-02-07 17:15;178,7
2019-02-07 17:30;179,35
2019-02-07 17:45;179,8
2019-02-07 18:00;175,2
2019-02-07 18:15;165,65
2019-02-07 18:30;156,6
2019-02-07 18:45;152,5
2019-02-07 19:00;145,7
2019-02-07 19:15;143,8
2019-02-07 19:30;143,65
2019-02-07 19:45;139,35
2019-02-07 20:00;136,2
2019-02-07 20:15;127,95
2019-02-07 20:30;124,95
2019-02-07 20:45;128,55
2019-02-07 21:00;125,9
2019-02-07 21:15;120,35
2019-02-07 21:30;116,85
2019-02-07 21:45;108,4
2019-02-07 22:00;111,15
2019-02-07 22:15;113,05
2019-02-07 22:30;111,55
2019-02-07 22:45;109,3
2019-02-07 23:00;115,4
2019-02-07 23:15;110
2019-02-07 23:30;111,45
2019-02-07 23:45;112,35
2019-02-08 00:00;102,3
2019-02-08 00:15;101,3
2019-02-08 00:30;102
2019-02-08 00:45;103,15
2019-02-08 01:00;100,65
2019-02-08 01:15;101,4
2019-02-08 01:30;101,55
2019-02-08 01:45;98,9
2019-02-08 02:00;108,95
2019-02-08 02:15;110,3
2019-02-08 02:30;108,65
2019-02-08 02:45;107,8
2019-02-08 03:00;109,95
2019-02-08 03:15;111,85
2019-02-08 03:30;106,65
2019-02-08 03:45;106,6
2019-02-08 04:00;105,55
2019-02-08 04:15;101,35
2019-02-08 04:30;99,8
2019-02-08 04:45;100,75
2019-02-08 05:00;103,65
2019-02-08 05:15;102,7
2019-02-08 05:30;99
2019-02-08 05:45;98,85
2019-02-08 06:00;99,6
2019-02-08 06:15;100,1
2019-02-08 06:30;99,75
2019-02-08 06:45;97,8
2019-02-08 07:00;98,9
2019-02-08 07:15;102,3
2019-02-08 07:30;157,7
2019-02-08 07:45;130
2019-02-08 08:00;134,4
2019-02-08 08:15;130,5
2019-02-08 08:30;143
2019-02-08 08:45;164,8
2019-02-08 09:00;184
2019-02-08 09:15;187,1
2019-02-08 09:30;197,25
2019-02-08 09:45;217,85
2019-02-08 10:00;223,3
2019-02-08 10:15;242,55
2019-02-08 10:30;263,65
2019-02-08 10:45;274,25
2019-02-08 11:00;268,95
2019-02-08 11:15;266,1
2019-02-08 11:30;272,15
2019-02-08 11:45;263,6
2019-02-08 12:00;269,7
2019-02-08 12:15;277,35
2019-02-08 12:30;272,6
2019-02-08 12:45;262,6
2019-02-08 13:00;262,35
2019-02-08 13:15;256,95
2019-02-08 13:30;250,1
2019-02-08 13:45;240,8
2019-02-08 14:00;245,9
2019-02-08 14:15;238,05
2019-02-08 14:30;228,35
2019-02-08 14:45;226,35
2019-02-08 15:00;208,6
2019-02-08 15:15;209,75
2019-02-08 15:30;200,05
2019-02-08 15:45;197,35
2019-02-08 16:00;188,75
2019-02-08 16:15;190,6
2019-02-08 16:30;178,4
2019-02-08 16:45;176,45
2019-02-08 17:00;165,1
2019-02-08 17:15;160,5
2019-02-08 17:30;152,4
2019-02-08 17:45;162,1
2019-02-08 18:00;161,9
2019-02-08 18:15;158,3
2019-02-08 18:30;164,25
2019-02-08 18:45;162,65
2019-02-08 19:00;152,9
2019-02-08 19:15;155,15
2019-02-08 19:30;150,25
2019-02-08 19:45;151,4
2019-02-08 20:00;149
2019-02-08 20:15;140,2
2019-02-08 20:30;137,7
2019-02-08 20:45;133,4
2019-02-08 21:00;134,6
2019-02-08 21:15;128,4
2019-02-08 21:30;125,05
2019-02-08 21:45;123,05
2019-02-08 22:00;121,25
2019-02-08 22:15;120,55
2019-02-08 22:30;116,55
2019-02-08 22:45;115,8
2019-02-08 23:00;121,2
2019-02-08 23:15;119,05
2019-02-08 23:30;120,05
2019-02-08 23:45;115,05
2019-02-09 00:00;107,7
2019-02-09 00:15;103,75
2019-02-09 00:30;106,6
2019-02-09 00:45;109
2019-02-09 01:00;104,25
2019-02-09 01:15;104,65
2019-02-09 01:30;102,75
2019-02-09 01:45;104,5
2019-02-09 02:00;104,75
2019-02-09 02:15;102,85
2019-02-09 02:30;101,05
2019-02-09 02:45;101,45
2019-02-09 03:00;100,2
2019-02-09 03:15;103,9
2019-02-09 03:30;103,25
2019-02-09 03:45;104,6
2019-02-09 04:00;104,3
2019-02-09 04:15;101,4
2019-02-09 04:30;103,85
2019-02-09 04:45;102,55
2019-02-09 05:00;101,35
2019-02-09 05:15;100,35
2019-02-09 05:30;98,75
2019-02-09 05:45;100,05
2019-02-09 06:00;98,55
2019-02-09 06:15;97,7
2019-02-09 06:30;97,7
2019-02-09 06:45;97,15
2019-02-09 07:00;98,35
2019-02-09 07:15;97,3
2019-02-09 07:30;94,4
2019-02-09 07:45;93,5
2019-02-09 08:00;91,2
2019-02-09 08:15;91,8
2019-02-09 08:30;93,6
2019-02-09 08:45;93,25
2019-02-09 09:00;96,9
2019-02-09 09:15;91,85
2019-02-09 09:30;92,75
2019-02-09 09:45;93,8
2019-02-09 10:00;90,85
2019-02-09 10:15;88,9
2019-02-09 10:30;92,05
2019-02-09 10:45;93,15
2019-02-09 11:00;91,15
2019-02-09 11:15;96,05
2019-02-09 11:30;94,3
2019-02-09 11:45;95,1
2019-02-09 12:00;96,3
2019-02-09 12:15;100,05
2019-02-09 12:30;98,15
2019-02-09 12:45;98,7
2019-02-09 13:00;99,8
2019-02-09 13:15;100,8
2019-02-09 13:30;104,15
2019-02-09 13:45;103,5
2019-02-09 14:00;99,55
2019-02-09 14:15;100,1
2019-02-09 14:30;97,6
2019-02-09 14:45;95,55
2019-02-09 15:00;96,95
2019-02-09 15:15;98
2019-02-09 15:30;98,05
2019-02-09 15:45;96,05
2019-02-09 16:00;95,15
2019-02-09 16:15;98,4
2019-02-09 16:30;100,25
2019-02-09 16:45;103,95
2019-02-09 17:00;105,05
2019-02-09 17:15;107,95
2019-02-09 17:30;106
2019-02-09 17:45;108,35
2019-02-09 18:00;106,55
2019-02-09 18:15;109,55
2019-02-09 18:30;114,25
2019-02-09 18:45;116,5
2019-02-09 19:00;113,05
2019-02-09 19:15;114,1
2019-02-09 19:30;114,55
2019-02-09 19:45;113,75
2019-02-09 20:00;113,15
2019-02-09 20:15;111,15
2019-02-09 20:30;111,8
2019-02-09 20:45;113,35
2019-02-09 21:00;111,4
2019-02-09 21:15;107,25
2019-02-09 21:30;108,55
2019-02-09 21:45;104,15
2019-02-09 22:00;102,4
2019-02-09 22:15;104,5
2019-02-09 22:30;102,35
2019-02-09 22:45;103
2019-02-09 23:00;106,15
2019-02-09 23:15;104,35
2019-02-09 23:30;107,5
2019-02-09 23:45;113
2019-02-10 00:00;99,85
2019-02-10 00:15;98,6
2019-02-10 00:30;98,3
2019-02-10 00:45;98,2
2019-02-10 01:00;97,6
2019-02-10 01:15;100,15
2019-02-10 01:30;99,5
2019-02-10 01:45;96,7
2019-02-10 02:00;98,5
2019-02-10 02:15;96,65
2019-02-10 02:30;98,9
2019-02-10 02:45;97,4
2019-02-10 03:00;98,7
2019-02-10 03:15;98,4
2019-02-10 03:30;95,4
2019-02-10 03:45;95,4
2019-02-10 04:00;97,8
2019-02-10 04:15;95,55
2019-02-10 04:30;97,5
2019-02-10 04:45;96,95
2019-02-10 05:00;96,2
2019-02-10 05:15;96,45
2019-02-10 05:30;96,15
2019-02-10 05:45;94,8
2019-02-10 06:00;97,05
2019-02-10 06:15;96,5
2019-02-10 06:30;95
2019-02-10 06:45;95,35
2019-02-10 07:00;95,25
2019-02-10 07:15;94,2
2019-02-10 07:30;90,5
2019-02-10 07:45;89,15
2019-02-10 08:00;91,35
2019-02-10 08:15;90,65
2019-02-10 08:30;89,9
2019-02-10 08:45;90,5
2019-02-10 09:00;90,5
2019-02-10 09:15;89,95
2019-02-10 09:30;88,75
2019-02-10 09:45;89,75
2019-02-10 10:00;89,25
2019-02-10 10:15;89,55
2019-02-10 10:30;86,65
2019-02-10 10:45;88,5
2019-02-10 11:00;93,9
2019-02-10 11:15;95,6
2019-02-10 11:30;91,45
2019-02-10 11:45;94,85
2019-02-10 12:00;94,7
2019-02-10 12:15;91,1
2019-02-10 12:30;90
2019-02-10 12:45;95,5
2019-02-10 13:00;94,55
2019-02-10 13:15;94,35
2019-02-10 13:30;90,75
2019-02-10 13:45;90,15
2019-02-10 14:00;91,1
2019-02-10 14:15;92,2
2019-02-10 14:30;96,1
2019-02-10 14:45;94,85
2019-02-10 15:00;98,45
2019-02-10 15:15;95,65
2019-02-10 15:30;95,25
2019-02-10 15:45;92,9
2019-02-10 16:00;94,5
2019-02-10 16:15;94
2019-02-10 16:30;94,4
2019-02-10 16:45;94,15
2019-02-10 17:00;94,55
2019-02-10 17:15;97,05
2019-02-10 17:30;96,4
2019-02-10 17:45;102,6
2019-02-10 18:00;105,2
2019-02-10 18:15;107,5
2019-02-10 18:30;108,1
2019-02-10 18:45;112,35
2019-02-10 19:00;114,8
2019-02-10 19:15;118,9
2019-02-10 19:30;115,65
2019-02-10 19:45;118,1
2019-02-10 20:00;117,35
2019-02-10 20:15;115,7
2019-02-10 20:30;115,55
2019-02-10 20:45;119,55
2019-02-10 21:00;112,55
2019-02-10 21:15;110,95
2019-02-10 21:30;107,65
2019-02-10 21:45;102,95
2019-02-10 22:00;105,05
2019-02-10 22:15;106,3
2019-02-10 22:30;110,85
2019-02-10 22:45;109,2
2019-02-10 23:00;116,2
2019-02-10 23:15;110,45
2019-02-10 23:30;113,85
2019-02-10 23:45;119,6

